Temperature
21 21 20 20 19 19 22 23 24 25 24 24 25 24 23 22 22 21 21 21 21 21 20 20 19 20 19 20 20 20 19 19 19 19 19 19 19 19 18 18 18 18 18 18 18 18 18 18 17
21 21 20 20 19 21 22 24 24 25 25 24 24 24 23 22 22 21 21 21 21 21 20 20 20 20 20 20 19 19 19 19 19 19 19 19 19 19 18 18 18 18 18 18 18 18 18 17 17
21 20 20 19 20 21 23 24 25 25 25 25 24 24 23 22 22 22 22 21 21 20 20 20 20 20 20 19 19 19 19 19 19 19 19 19 19 18 18 18 18 18 18 18 18 18 17 17 17
21 21 20 19 22 22 23 24 25 24 25 25 24 23 22 22 23 23 22 21 21 21 20 20 20 20 19 19 19 19 19 19 19 19 19 18 18 18 18 18 18 18 18 18 18 17 17 17 17
21 21 20 20 21 23 24 25 25 24 24 24 24 22 21 22 23 23 22 21 21 21 20 20 20 19 19 19 19 19 19 19 19 19 18 18 18 18 18 18 18 18 18 18 18 17 17 17 17
22 19 19 20 22 24 25 26 25 25 24 24 23 21 21 22 22 22 22 21 21 21 20 20 19 19 19 19 19 19 19 19 19 18 18 18 18 18 18 18 18 18 18 18 17 17 17 17 17
21 19 20 21 22 24 26 26 25 24 24 24 24 21 20 21 22 22 21 21 21 20 20 19 19 19 19 19 19 19 19 19 18 18 18 18 18 18 18 18 18 18 18 17 17 17 17 17 17
22 19 21 21 22 24 26 27 26 25 24 25 24 22 20 21 21 21 21 20 20 20 20 19 19 19 19 19 19 19 19 18 18 18 18 18 18 18 18 18 18 18 18 17 17 17 17 17 17
23 19 20 22 23 25 26 26 26 26 25 24 23 23 23 22 21 20 20 19 19 19 19 19 19 19 19 19 19 19 18 18 18 18 18 18 18 18 18 18 18 18 18 17 17 17 17 17 17
22 19 21 22 24 25 26 26 26 25 23 23 23 23 23 22 21 20 20 19 19 19 19 19 19 19 19 19 18 18 18 18 18 18 18 18 18 18 18 18 18 17 17 17 17 17 17 17 17
21 21 22 24 26 26 26 26 26 24 23 24 24 23 22 21 20 20 20 20 20 19 19 19 19 19 19 19 18 18 18 18 18 18 18 18 18 18 18 18 17 17 17 17 17 17 17 17 17
22 22 24 25 27 26 26 26 25 25 26 27 26 25 23 21 21 21 20 20 20 19 19 19 19 19 19 19 18 18 18 18 18 18 18 18 18 18 18 18 18 17 17 17 17 17 17 17 17
23 24 26 26 27 26 26 25 25 25 26 26 26 24 23 22 22 21 20 20 20 20 20 19 19 19 19 19 19 18 18 18 18 18 18 18 18 18 18 18 18 17 17 17 17 17 17 17 17
24 25 25 26 26 26 25 25 25 24 25 25 24 23 22 22 21 20 20 20 20 20 20 19 19 19 19 19 18 19 18 18 18 18 18 18 18 18 18 18 18 17 17 17 17 17 17 17 17
24 24 24 25 26 26 26 25 24 25 24 23 23 22 21 21 21 21 21 21 20 20 19 19 19 18 18 18 18 18 18 18 18 18 18 18 17 17 18 17 17 17 17 17 17 17 17 17 17
23 23 23 24 25 26 26 25 24 24 23 22 21 21 21 21 21 21 21 20 20 19 19 19 19 18 18 18 18 18 18 18 18 18 18 17 17 17 17 17 17 17 17 17 17 17 17 17 17
21 22 23 23 25 25 25 24 23 23 23 21 21 20 20 20 20 20 20 20 20 19 19 19 18 18 18 18 18 18 18 18 18 18 18 17 17 17 17 17 17 17 17 17 17 17 17 17 17
22 23 22 23 24 24 23 22 22 23 22 21 20 20 20 20 21 21 20 20 20 19 19 18 18 18 18 17 17 17 17 17 18 18 18 17 17 17 17 17 17 17 17 17 17 17 17 17 17
23 22 22 22 24 24 23 22 22 22 21 21 20 20 20 21 21 20 20 20 19 19 19 18 18 18 18 17 17 17 17 18 17 18 17 17 17 17 17 17 17 17 17 17 17 17 17 16 16
22 22 21 22 24 24 22 22 22 21 21 21 20 20 20 20 20 20 20 20 20 19 19 18 18 18 18 18 17 17 17 18 18 17 17 17 17 17 17 17 17 17 17 17 17 17 16 16 16
22 22 22 22 23 22 23 22 22 21 21 21 20 20 20 20 20 20 20 20 20 19 19 19 18 18 18 17 17 17 17 17 17 17 17 17 17 17 17 17 17 17 17 17 17 17 16 16 16
21 22 22 23 22 20 22 21 21 20 20 20 20 20 20 20 20 20 20 20 19 19 19 19 18 18 18 17 17 17 17 17 17 17 17 17 17 17 17 17 17 17 17 17 16 16 16 16 16
22 23 23 22 21 20 20 20 20 19 20 20 19 19 20 20 20 20 20 20 19 19 19 19 18 18 18 17 17 17 17 17 17 17 17 17 17 17 17 17 17 16 16 16 16 16 16 16 16
24 22 20 18 18 20 21 20 20 19 20 20 19 20 20 20 20 20 20 19 19 19 19 18 18 18 18 17 17 17 17 17 17 17 17 17 17 17 17 17 16 16 16 16 16 16 16 16 16
23 20 19 20 19 19 19 19 19 20 20 19 19 19 19 20 20 20 19 19 19 19 18 18 18 18 17 17 17 17 17 17 17 17 17 17 17 17 17 16 16 16 16 16 16 16 16 16 16
21 20 19 20 20 19 19 19 19 20 20 20 20 20 19 19 19 19 19 19 19 19 18 18 18 17 17 17 17 17 17 17 17 17 17 17 17 17 17 16 16 16 16 16 16 16 16 16 16
21 19 20 18 19 19 19 19 19 19 19 19 19 19 19 19 19 19 19 19 19 19 18 18 18 17 17 17 17 17 17 17 17 17 17 17 17 17 17 16 16 16 16 16 16 15 15 15 15
22 18 17 18 19 20 21 20 19 21 19 19 18 18 18 19 19 19 19 19 19 19 18 18 17 17 17 17 17 17 17 16 16 17 17 17 16 16 16 16 16 16 16 15 15 15 15 15 15
21 20 18 16 18 19 20 20 20 20 19 18 18 18 19 19 19 19 19 19 19 18 18 17 17 17 17 16 16 16 16 16 16 16 16 16 16 16 16 16 16 16 15 15 15 15 15 15 15
22 20 18 19 19 17 18 19 20 18 18 18 19 19 19 19 19 19 19 19 18 18 17 17 17 17 17 16 16 16 16 16 16 16 16 16 16 16 16 16 16 15 15 15 15 15 15 15 15
Wind_Speed
5 5 2 1 3 5 3 3 2 1 1 1 4 5 6 5 4 3 4 12 16 16 17 20 20 19 19 18 18 17 17 17 17 16 15 15 14 13 13 12 12 12 13 13 13 13 13 13 14
5 4 1 2 4 3 3 3 1 1 3 4 4 5 5 3 3 7 8 11 17 16 17 19 21 20 19 18 18 17 17 16 16 15 15 14 13 13 13 12 12 13 13 13 13 13 13 14 14
4 3 2 4 3 3 3 3 2 1 3 2 3 3 3 5 7 8 8 15 15 13 16 19 22 20 20 19 18 17 17 16 15 15 14 14 13 13 13 12 12 13 13 13 13 14 14 13 13
2 2 4 4 1 4 5 5 3 4 1 1 3 4 3 3 7 8 15 17 16 13 15 19 22 21 20 19 18 17 16 15 15 14 13 13 13 12 12 12 12 12 12 13 13 13 13 13 12
3 4 4 3 4 5 5 5 6 6 4 2 3 4 2 3 8 15 17 18 17 13 13 19 22 21 20 19 18 17 16 15 14 14 13 13 12 12 12 12 12 12 12 12 12 12 12 11 11
4 4 4 3 5 5 4 5 6 5 3 3 4 4 1 3 11 16 16 15 15 15 12 17 22 21 20 19 18 17 16 15 14 14 13 12 12 11 11 11 12 12 11 11 11 11 10 10 10
4 4 1 3 5 5 3 3 6 6 5 6 6 5 2 5 8 13 14 13 12 12 11 12 17 19 20 19 18 17 16 15 14 14 13 12 12 11 11 11 11 11 11 11 10 10 9 9 9
4 4 1 2 4 5 2 1 3 6 4 4 6 7 6 8 12 13 13 12 11 10 9 8 12 14 15 17 18 17 16 15 14 14 13 12 11 11 10 9 10 10 10 10 9 9 8 8 8
4 4 2 4 4 5 2 1 1 2 4 3 3 3 6 17 17 15 13 11 12 12 8 8 8 10 12 13 17 17 16 15 14 13 13 11 9 9 9 8 9 9 9 9 8 8 7 7 7
4 2 6 6 5 5 6 4 4 4 2 2 2 5 15 19 19 19 18 17 16 15 12 9 9 8 11 12 12 12 12 12 11 10 10 9 8 8 7 8 8 9 8 8 7 7 7 6 6
6 6 6 7 7 6 6 5 4 8 6 8 9 14 20 20 17 17 17 16 16 14 13 10 10 9 9 7 9 8 9 9 9 9 10 9 7 6 5 4 4 5 6 5 5 5 5 5 5
5 7 7 7 6 5 5 3 3 7 9 7 12 19 22 21 19 19 17 15 13 13 13 12 10 9 7 7 7 7 7 7 7 8 10 8 5 4 4 3 3 3 3 3 4 3 3 3 4
5 6 6 9 11 7 4 4 4 5 4 6 14 18 21 20 17 13 11 12 13 14 13 12 11 10 8 6 6 7 6 7 8 8 9 9 5 3 3 3 3 3 3 3 2 2 2 2 2
5 6 9 9 7 3 2 3 2 5 5 10 15 17 17 17 15 12 12 13 13 13 12 10 10 9 8 7 6 6 7 8 8 8 9 10 8 5 4 3 3 3 3 3 3 2 2 2 2
4 6 9 5 4 2 1 3 4 3 6 9 11 12 12 12 13 15 16 15 14 12 11 11 11 9 8 8 7 7 8 9 7 8 9 10 9 8 6 4 3 4 4 4 3 3 2 2 2
4 4 5 7 4 3 2 6 6 3 8 8 9 9 10 10 12 12 12 11 12 12 12 11 12 10 9 7 6 6 8 8 7 9 9 10 10 9 7 4 4 5 4 4 3 2 2 1 2
5 4 5 8 4 4 2 7 6 3 7 8 8 9 9 9 9 9 11 11 13 13 13 12 10 11 10 8 6 6 7 7 8 8 9 10 10 10 8 5 4 6 4 3 3 2 2 2 2
2 3 5 8 7 7 6 6 6 2 5 6 7 8 9 10 11 9 10 10 12 12 12 12 10 11 9 6 5 4 4 4 6 7 8 10 10 11 9 6 5 6 4 3 3 3 2 2 2
3 4 9 10 7 5 6 6 6 1 2 3 5 6 8 9 6 6 8 10 11 11 12 13 13 12 10 7 7 6 5 4 4 5 8 10 10 11 9 5 5 5 4 4 5 3 3 2 2
4 5 8 10 5 2 4 5 5 1 3 4 5 6 7 6 5 7 8 9 11 12 13 13 14 13 12 9 7 4 4 3 3 3 5 9 11 11 9 7 6 5 5 5 4 3 3 2 2
6 6 7 8 7 5 2 6 5 3 2 1 2 4 4 7 8 8 9 9 10 12 13 13 13 13 12 10 6 5 4 3 2 3 4 5 9 10 9 9 7 6 5 5 5 5 5 3 1
7 8 8 7 4 5 2 4 7 3 4 2 2 2 4 5 7 8 9 9 10 11 10 10 11 11 11 11 10 10 8 6 6 5 5 4 7 8 9 9 8 6 5 5 5 4 3 4 3
9 3 2 3 3 1 2 2 8 3 4 5 3 3 4 5 7 8 9 9 8 8 9 9 9 10 11 11 12 11 8 6 5 4 6 5 5 6 8 9 7 6 5 5 5 5 4 3 4
5 5 6 6 5 1 3 2 7 5 6 4 3 3 4 4 5 6 6 6 6 6 7 8 9 9 10 11 11 12 11 9 8 7 7 6 4 4 6 7 7 6 5 6 5 5 6 4 3
5 5 4 5 4 6 3 2 9 7 5 4 5 4 4 5 5 6 7 7 7 8 8 8 9 8 9 10 10 11 11 11 11 9 8 7 5 4 6 6 6 5 6 6 6 5 5 5 5
7 10 8 6 5 6 3 5 8 4 2 3 3 3 4 5 6 7 8 8 8 8 8 8 9 8 9 10 9 9 10 8 7 8 7 8 6 6 7 7 7 7 7 7 6 5 4 4 4
8 6 8 7 3 1 6 8 9 1 1 1 0 2 4 5 6 7 7 7 7 7 8 8 8 8 9 9 8 8 8 8 7 7 6 6 5 5 7 7 7 7 7 7 6 4 4 4 4
6 10 7 7 7 4 5 5 5 4 3 2 2 3 4 4 6 7 7 6 6 6 6 6 7 7 7 7 7 7 7 7 7 7 7 7 7 6 8 7 7 7 6 6 6 5 4 5 4
5 5 6 5 6 7 4 7 6 6 6 6 6 5 6 6 6 7 6 6 6 5 6 6 6 6 6 7 6 7 7 7 7 7 7 7 6 7 8 8 7 7 7 7 6 5 6 5 4
6 8 8 6 5 5 5 7 4 5 5 5 5 4 5 6 6 6 6 6 6 5 5 5 5 6 6 7 7 6 6 6 6 6 6 6 6 6 7 7 7 6 6 6 7 7 6 6 5
Wind_Direction
185 156 142 120 59 46 353 304 289 339 53 101 128 135 142 149 172 190 135 143 139 146 153 154 150 146 140 135 132 130 128 127 126 127 126 126 125 125 123 121 120 118 117 115 114 115 116 115 115
144 153 146 62 73 48 315 282 293 263 156 114 96 103 111 110 98 117 134 146 144 147 151 153 153 149 144 140 137 135 133 132 131 130 129 128 128 126 123 121 120 119 117 117 116 115 114 113 114
160 178 94 67 88 171 255 258 209 118 142 126 106 85 121 145 139 146 153 145 141 144 150 156 155 152 148 145 143 141 139 137 135 134 132 131 130 127 125 123 121 120 119 119 116 114 114 114 113
142 67 59 65 253 232 229 233 185 154 211 60 120 106 85 100 148 149 143 145 142 144 150 159 156 155 152 150 149 146 145 143 140 139 137 136 133 131 130 126 124 122 120 118 116 115 115 114 113
79 81 53 15 282 258 241 223 185 180 191 158 135 131 84 21 121 137 144 148 148 147 152 161 159 158 156 154 153 151 150 149 145 143 142 140 138 135 133 129 126 124 122 120 119 118 117 115 114
57 65 64 327 297 284 248 213 177 183 178 148 141 130 91 104 131 143 147 149 151 152 153 161 161 160 159 159 158 157 155 153 150 147 145 143 140 137 136 133 131 129 126 125 123 122 119 114 112
104 90 126 273 292 298 266 172 169 175 183 186 153 132 126 140 145 142 142 143 148 151 151 156 161 163 163 162 161 161 159 157 154 151 149 147 143 141 139 137 136 133 131 130 128 125 121 116 112
130 101 27 280 269 277 268 146 178 172 195 149 139 156 183 168 143 135 135 140 146 150 152 151 155 159 162 164 165 164 162 161 159 155 154 152 149 146 141 138 138 137 136 134 132 128 123 118 116
106 74 257 239 238 272 277 315 217 144 131 142 163 170 158 143 141 140 143 148 157 160 156 151 151 152 155 161 169 166 165 166 162 161 159 152 140 140 141 145 145 143 141 137 135 130 124 115 115
110 162 235 226 226 268 283 255 201 146 159 185 113 102 133 146 153 157 162 166 170 171 167 162 157 153 155 166 167 163 161 162 158 157 148 138 138 144 149 159 155 151 145 140 137 132 122 107 103
171 209 247 256 244 261 274 271 183 159 209 213 187 159 153 157 164 170 173 174 173 171 171 170 165 160 159 157 153 151 149 150 151 151 143 142 141 145 143 146 141 133 130 120 117 107 109 114 114
203 248 247 271 278 274 255 240 189 190 220 205 170 158 159 166 175 179 178 175 169 172 176 171 168 163 160 155 153 150 149 151 153 157 154 151 149 148 147 143 132 117 118 116 108 107 120 130 138
233 270 270 268 287 269 250 230 217 235 234 137 143 156 169 175 181 180 172 169 171 178 179 173 171 170 163 155 159 160 159 161 162 163 167 168 165 164 164 161 156 149 146 142 136 130 136 140 141
260 275 289 291 291 276 224 258 190 241 151 140 152 167 176 180 176 169 171 177 181 180 178 174 173 171 164 166 167 163 165 166 167 173 180 182 179 175 171 172 174 176 179 177 166 161 148 146 144
302 311 317 310 309 294 97 310 254 215 148 153 163 168 176 180 176 183 183 182 180 179 175 175 174 170 173 173 174 170 169 168 173 183 189 190 188 184 180 178 186 192 186 168 141 122 116 125 135
357 7 329 309 327 337 52 283 279 164 154 160 164 168 176 183 188 189 183 179 173 171 174 178 181 176 181 181 174 170 172 173 180 186 192 195 195 189 180 181 191 184 168 154 136 126 116 117 137
22 355 311 311 326 0 7 274 287 169 165 170 171 174 177 181 190 192 186 176 172 172 171 174 178 177 184 183 176 173 169 174 179 184 190 195 195 191 181 183 185 170 156 154 155 130 137 148 154
272 313 307 301 308 340 319 283 296 208 175 179 175 176 180 191 200 193 182 174 167 168 169 172 178 182 178 173 169 165 161 171 173 182 191 191 192 187 179 179 177 165 151 153 147 134 112 121 137
211 268 284 282 297 316 302 295 298 270 173 183 181 185 195 206 195 174 173 170 167 168 172 176 181 180 174 175 182 176 179 177 178 186 188 188 187 182 175 175 169 165 164 168 155 131 122 107 109
224 275 285 294 325 323 302 302 302 279 221 205 195 201 203 189 172 173 169 174 178 179 180 181 185 181 181 182 179 167 154 163 175 174 184 188 187 182 181 173 172 166 155 152 154 140 129 118 124
242 229 254 272 325 356 350 318 297 302 329 230 199 204 199 188 183 181 178 183 183 186 188 189 186 182 179 174 157 140 123 113 146 171 190 195 188 184 179 177 167 164 163 167 169 158 147 150 139
261 232 228 265 304 294 358 281 288 290 305 267 234 218 209 197 184 180 182 185 189 192 189 185 178 176 175 171 170 169 176 182 189 184 188 188 187 180 177 173 167 166 167 167 171 162 153 148 157
223 238 223 259 199 281 340 210 286 315 275 258 242 237 219 201 186 185 186 188 186 183 182 179 171 173 175 177 178 178 183 182 172 170 176 181 183 177 175 170 166 168 169 170 162 155 158 156 159
199 66 51 49 75 301 264 194 278 254 234 252 252 243 215 201 182 173 170 165 171 170 172 173 172 175 176 179 182 182 183 175 172 181 184 183 178 177 176 172 169 170 167 167 165 161 164 164 156
137 96 21 352 5 253 262 213 252 258 237 229 251 248 214 192 172 162 160 167 170 169 170 171 174 176 175 179 186 188 186 182 185 187 187 181 179 184 185 177 173 171 170 166 158 156 162 165 162
177 149 164 199 226 272 307 241 255 261 256 261 256 218 184 177 168 167 169 168 168 168 166 169 175 176 177 181 187 189 183 184 188 186 181 183 187 188 178 176 177 171 166 164 156 154 162 162 165
147 180 167 140 158 257 284 286 304 250 323 334 15 154 174 175 172 167 160 159 159 162 166 170 172 175 178 180 181 182 179 180 181 178 176 178 178 179 173 171 172 169 164 161 155 156 159 156 160
147 143 111 132 152 223 285 284 264 272 238 213 197 198 197 175 168 161 158 156 152 155 158 162 168 173 172 171 177 177 171 174 174 170 175 177 178 172 167 169 168 164 160 159 155 150 151 149 150
120 120 116 120 148 157 225 268 231 226 210 200 207 202 193 182 174 164 158 151 141 140 147 156 160 158 160 163 163 159 159 161 162 167 173 174 169 166 168 170 166 163 160 158 157 159 157 157 155
167 165 148 150 185 163 171 260 275 226 220 202 204 195 182 172 161 153 152 141 135 140 141 149 156 157 162 157 152 152 152 153 158 163 167 165 165 166 164 160 160 163 164 164 168 170 166 164 166
Height
1496 1495 1496 1497 1500 1507 1507 1498 1491 1488 1487 1487 1487 1489 1491 1494 1498 1502 1497 1498 1503 1507 1512 1516 1520 1522 1525 1527 1529 1531 1532 1534 1535 1536 1538 1539 1540 1541 1542 1543 1543 1544 1545 1545 1546 1546 1547 1548 1549
1496 1496 1498 1498 1505 1516 1509 1494 1491 1487 1487 1488 1488 1489 1490 1492 1492 1493 1494 1499 1504 1508 1512 1516 1520 1523 1526 1528 1530 1532 1533 1535 1536 1538 1539 1541 1542 1543 1544 1544 1545 1546 1546 1547 1548 1548 1549 1550 1551
1496 1497 1499 1500 1507 1512 1504 1492 1488 1487 1487 1488 1489 1489 1490 1491 1492 1493 1495 1500 1505 1509 1513 1517 1520 1523 1526 1529 1531 1533 1534 1536 1538 1539 1541 1542 1543 1544 1545 1546 1547 1548 1548 1549 1550 1551 1552 1552 1553
1497 1498 1499 1504 1506 1500 1494 1489 1487 1487 1488 1488 1489 1490 1491 1492 1493 1494 1496 1500 1505 1510 1514 1518 1521 1524 1527 1529 1531 1533 1535 1537 1539 1541 1542 1544 1545 1546 1547 1548 1549 1550 1551 1551 1552 1553 1554 1555 1556
1497 1498 1503 1509 1504 1495 1488 1486 1487 1487 1488 1488 1489 1490 1491 1493 1493 1495 1497 1501 1505 1510 1515 1518 1522 1525 1527 1530 1532 1534 1536 1538 1540 1542 1543 1545 1546 1548 1549 1550 1551 1552 1553 1553 1554 1555 1556 1557 1558
1498 1499 1511 1514 1503 1491 1486 1484 1485 1486 1487 1488 1489 1490 1491 1493 1494 1496 1499 1503 1507 1511 1515 1519 1522 1525 1528 1531 1533 1535 1537 1539 1541 1543 1545 1546 1548 1549 1550 1551 1552 1553 1555 1556 1557 1557 1558 1559 1560
1499 1503 1509 1507 1503 1493 1485 1483 1485 1485 1486 1487 1487 1490 1491 1493 1495 1497 1500 1504 1508 1512 1515 1519 1522 1525 1528 1531 1534 1536 1538 1540 1542 1544 1546 1548 1549 1550 1552 1553 1554 1555 1556 1557 1559 1560 1561 1561 1562
1498 1503 1507 1507 1502 1494 1485 1484 1484 1485 1485 1486 1487 1488 1489 1492 1494 1497 1501 1504 1509 1512 1516 1519 1522 1525 1528 1531 1534 1537 1539 1541 1543 1545 1547 1549 1550 1552 1553 1554 1556 1557 1558 1559 1560 1561 1562 1563 1564
1498 1506 1511 1504 1498 1490 1484 1484 1484 1484 1484 1485 1486 1487 1488 1490 1493 1497 1500 1504 1508 1512 1515 1518 1522 1525 1528 1531 1534 1537 1539 1542 1544 1546 1548 1550 1551 1553 1554 1556 1557 1558 1559 1560 1562 1563 1564 1565 1566
1498 1508 1502 1493 1488 1485 1482 1482 1482 1483 1484 1484 1485 1485 1487 1489 1492 1494 1497 1501 1505 1509 1513 1517 1521 1525 1528 1531 1534 1537 1539 1542 1544 1547 1549 1550 1552 1554 1555 1557 1558 1560 1561 1562 1563 1564 1565 1566 1567
1495 1498 1491 1486 1484 1483 1481 1479 1479 1481 1483 1480 1479 1481 1484 1488 1491 1493 1496 1500 1504 1508 1513 1516 1520 1524 1527 1531 1534 1537 1539 1542 1544 1547 1549 1551 1553 1554 1556 1557 1559 1560 1562 1563 1564 1565 1566 1568 1569
1494 1490 1488 1484 1482 1481 1479 1478 1478 1477 1476 1475 1476 1479 1481 1485 1488 1491 1495 1499 1504 1507 1511 1515 1519 1523 1527 1530 1533 1536 1539 1542 1544 1547 1549 1551 1553 1555 1556 1558 1560 1561 1563 1564 1565 1566 1567 1569 1570
1491 1488 1484 1482 1479 1477 1476 1476 1476 1474 1474 1474 1475 1478 1480 1482 1486 1491 1496 1499 1502 1506 1510 1513 1517 1522 1526 1530 1533 1536 1539 1542 1544 1547 1549 1552 1553 1555 1557 1559 1560 1562 1563 1565 1566 1567 1568 1570 1571
1488 1486 1482 1479 1477 1475 1475 1474 1475 1472 1472 1473 1473 1476 1479 1482 1485 1490 1494 1498 1501 1504 1508 1513 1517 1522 1526 1529 1533 1536 1538 1541 1544 1547 1549 1552 1554 1556 1558 1559 1561 1562 1564 1565 1567 1568 1569 1570 1571
1487 1486 1482 1478 1476 1475 1475 1477 1473 1471 1471 1472 1473 1476 1479 1482 1485 1488 1490 1494 1499 1503 1507 1512 1517 1521 1525 1529 1532 1535 1538 1541 1544 1547 1549 1552 1554 1556 1558 1560 1561 1563 1564 1565 1567 1568 1569 1570 1571
1487 1491 1493 1481 1477 1475 1480 1484 1471 1471 1471 1472 1474 1476 1479 1482 1484 1487 1490 1494 1498 1501 1506 1511 1515 1519 1524 1528 1531 1534 1538 1541 1544 1547 1549 1551 1553 1555 1558 1559 1561 1563 1564 1565 1567 1568 1569 1570 1571
1497 1502 1498 1487 1478 1477 1480 1482 1471 1470 1471 1472 1474 1476 1479 1481 1484 1486 1489 1492 1495 1499 1504 1508 1512 1517 1521 1526 1529 1533 1537 1540 1543 1546 1549 1551 1553 1555 1557 1559 1561 1562 1564 1565 1567 1568 1569 1570 1571
1504 1501 1498 1494 1481 1479 1480 1479 1472 1470 1471 1472 1474 1476 1478 1480 1481 1484 1487 1491 1494 1497 1502 1506 1511 1515 1519 1524 1527 1531 1535 1539 1542 1545 1547 1550 1552 1554 1556 1558 1560 1561 1563 1564 1565 1567 1568 1570 1571
1494 1498 1500 1491 1480 1481 1482 1480 1474 1471 1472 1472 1474 1476 1477 1478 1480 1483 1486 1489 1492 1495 1500 1503 1508 1512 1516 1520 1524 1528 1532 1536 1540 1543 1546 1549 1551 1553 1555 1557 1559 1560 1562 1563 1565 1566 1567 1569 1570
1494 1498 1498 1488 1479 1481 1482 1481 1474 1472 1472 1472 1473 1474 1475 1477 1479 1482 1484 1487 1489 1492 1496 1501 1504 1508 1512 1516 1521 1526 1530 1534 1538 1541 1544 1547 1549 1551 1553 1555 1557 1559 1560 1562 1563 1565 1566 1567 1569
1493 1496 1494 1491 1484 1481 1483 1485 1478 1473 1472 1472 1473 1473 1474 1475 1477 1479 1482 1485 1488 1490 1494 1497 1501 1505 1509 1514 1518 1523 1527 1531 1535 1539 1541 1544 1547 1550 1552 1554 1556 1557 1559 1560 1562 1564 1565 1566 1568
1494 1484 1485 1487 1494 1499 1491 1504 1483 1477 1474 1472 1472 1472 1473 1474 1476 1478 1480 1482 1485 1488 1491 1494 1498 1502 1507 1511 1515 1519 1522 1526 1530 1535 1539 1542 1545 1547 1549 1552 1554 1555 1557 1559 1561 1562 1563 1565 1566
1482 1477 1481 1485 1492 1499 1496 1503 1493 1479 1476 1472 1471 1471 1471 1472 1474 1476 1478 1480 1483 1486 1489 1492 1496 1500 1504 1508 1512 1516 1520 1524 1529 1532 1536 1539 1542 1544 1547 1549 1552 1553 1555 1557 1559 1560 1562 1563 1565
1473 1479 1486 1494 1501 1510 1499 1503 1498 1483 1474 1471 1469 1469 1469 1471 1473 1475 1478 1480 1482 1485 1487 1491 1494 1498 1501 1505 1509 1513 1517 1521 1525 1529 1532 1536 1538 1541 1544 1546 1549 1551 1553 1555 1557 1558 1560 1561 1563
1474 1493 1512 1512 1519 1515 1499 1501 1495 1473 1468 1468 1467 1467 1468 1469 1472 1475 1477 1479 1481 1483 1486 1488 1492 1495 1499 1502 1506 1510 1514 1518 1522 1525 1529 1532 1535 1538 1540 1543 1546 1548 1551 1553 1555 1556 1558 1560 1561
1476 1486 1509 1518 1520 1513 1500 1500 1482 1468 1466 1465 1465 1465 1467 1469 1471 1473 1476 1478 1480 1482 1484 1487 1490 1493 1496 1499 1503 1507 1510 1514 1518 1522 1526 1529 1532 1535 1538 1541 1543 1546 1548 1550 1552 1554 1556 1558 1559
1475 1483 1481 1502 1507 1511 1505 1493 1476 1466 1466 1466 1466 1465 1466 1468 1470 1472 1475 1477 1479 1481 1483 1485 1488 1490 1494 1497 1500 1504 1507 1511 1515 1519 1523 1526 1529 1532 1535 1538 1541 1543 1546 1548 1550 1551 1553 1555 1557
1461 1473 1489 1501 1514 1515 1502 1496 1488 1470 1468 1466 1466 1466 1466 1468 1469 1471 1473 1476 1478 1479 1482 1484 1486 1489 1492 1495 1498 1501 1504 1508 1512 1515 1519 1523 1526 1529 1532 1535 1538 1541 1543 1545 1548 1549 1551 1553 1555
1467 1474 1483 1496 1498 1511 1511 1498 1470 1466 1464 1464 1464 1464 1465 1467 1469 1470 1472 1474 1476 1478 1481 1483 1485 1487 1490 1493 1496 1499 1502 1506 1509 1512 1515 1520 1523 1526 1530 1533 1536 1539 1541 1543 1545 1547 1549 1550 1552
1455 1465 1476 1488 1496 1501 1504 1495 1462 1461 1461 1461 1462 1463 1464 1466 1467 1470 1472 1473 1476 1478 1480 1482 1484 1486 1488 1491 1494 1497 1501 1504 1507 1510 1514 1517 1521 1525 1528 1531 1534 1536 1539 1541 1543 1545 1547 1548 1550